Logan, UT

3:03 AM MDT on July 21, 2017 (GMT -0600)
Logan-Cache

Weather History for KLGU - May, 2013

Change the Weather History Date:

Thursday, May 2, 2013

  Actual Average Record
Temperature  
Mean Temperature 43 °F -  
Max Temperature 62 °F 65 °F 83 °F (1985)
Min Temperature 25 °F 36 °F 23 °F (2001)
Degree Days  
Heating Degree Days 22    
Moisture  
Dew Point 17 °F    
Average Humidity 41    
Maximum Humidity 72    
Minimum Humidity 15    
Precipitation  
Precipitation 0.00 in - - ()
Sea Level Pressure  
Sea Level Pressure 30.55 in    
Wind  
Wind Speed 1 mph (NNW)    
Max Wind Speed 7 mph    
Max Gust Speed -    
Visibility 10 miles    
Events      
Averages and records for this station are not official NWS values.
T = Trace of Precipitation, MM = Missing Value Source: NWS Daily Summary

Daily Weather History Graph

Daily Weather History Graph

Search for Another Location

Airport or City:

Trip Planner

Search our weather history database for the weather conditions in past years. The results will help you decide how hot, cold, wet, or windy it might be!

Date:

Astronomy

May. 02, 2013 Rise Set
Actual Time 6:22 AM MDT 8:27 PM MDT
Civil Twilight 5:51 AM MDT 8:57 PM MDT
Nautical Twilight 5:14 AM MDT 9:35 PM MDT
Astronomical Twilight 4:33 AM MDT 10:16 PM MDT
Moon 2:18 AM MDT (5/2) 1:14 PM MDT (5/2)
Length of Visible Light 15h 06m
Length of Day
14h 05m
Waning Gibbous, 47% of the Moon is Illuminated
May 2
Waning Gibbous
May 9
New
May 17
First Quarter
May 24
Full
May 31
Last Quarter

Hourly Weather History & Observations

Time (MDT) Temp. Windchill Dew Point Humidity Pressure Visibility Wind Dir Wind Speed Gust Speed Precip Events Conditions
12:51 AM 28.0 °F - 16.0 °F 61% 30.61 in 10.0 mi Calm Calm - N/A   Clear
1:51 AM 28.0 °F - 19.0 °F 69% 30.62 in 10.0 mi Calm Calm - N/A   Clear
2:51 AM 28.0 °F - 18.0 °F 66% 30.63 in 10.0 mi Calm Calm - N/A   Clear
3:51 AM 26.1 °F - 16.0 °F 66% 30.64 in 10.0 mi Calm Calm - N/A   Clear
4:51 AM 28.9 °F - 16.0 °F 58% 30.64 in 10.0 mi Calm Calm - N/A   Clear
5:51 AM 25.0 °F - 17.1 °F 72% 30.67 in 10.0 mi Calm Calm - N/A   Clear
6:51 AM 25.0 °F 20.7 °F 15.1 °F 66% 30.67 in 10.0 mi ENE 3.5 mph - N/A   Clear
7:51 AM 30.0 °F - 21.0 °F 69% 30.68 in 10.0 mi Calm Calm - N/A   Clear
8:51 AM 36.0 °F 33.3 °F 18.0 °F 48% 30.68 in 10.0 mi NNW 3.5 mph - N/A   Clear
9:51 AM 42.1 °F 40.2 °F 18.0 °F 38% 30.67 in 10.0 mi Variable 3.5 mph - N/A   Clear
10:51 AM 46.9 °F - 17.1 °F 30% 30.65 in 10.0 mi NW 3.5 mph - N/A   Clear
11:51 AM 51.1 °F - 12.9 °F 22% 30.61 in 10.0 mi ENE 3.5 mph - N/A   Clear
12:51 PM 54.0 °F - 15.1 °F 22% 30.59 in 10.0 mi Calm Calm - N/A   Clear
1:51 PM 54.0 °F - 12.9 °F 20% 30.57 in 10.0 mi Variable 3.5 mph - N/A   Clear
2:51 PM 57.0 °F - 15.1 °F 19% 30.52 in 10.0 mi Variable 4.6 mph - N/A   Clear
3:51 PM 61.0 °F - 18.0 °F 19% 30.49 in 10.0 mi North 4.6 mph - N/A   Clear
4:51 PM 61.0 °F - 12.9 °F 15% 30.45 in 10.0 mi Calm Calm - N/A   Clear
5:51 PM 61.0 °F - 15.1 °F 17% 30.44 in 10.0 mi WNW 3.5 mph - N/A   Clear
6:51 PM 61.0 °F - 12.9 °F 15% 30.42 in 10.0 mi Calm Calm - N/A   Clear
7:51 PM 57.0 °F - 21.9 °F 26% 30.40 in 10.0 mi West 3.5 mph - N/A   Clear
8:51 PM 50.0 °F - 23.0 °F 35% 30.39 in 10.0 mi West 6.9 mph - N/A   Clear
9:51 PM 50.0 °F - 19.0 °F 29% 30.38 in 10.0 mi NW 3.5 mph - N/A   Clear
10:51 PM 46.0 °F 43.9 °F 21.0 °F 37% 30.36 in 10.0 mi SE 4.6 mph - N/A   Clear
11:51 PM 37.0 °F - 27.0 °F 67% 30.37 in 10.0 mi Calm Calm - N/A   Clear